Location: Newark
(40.2370°N, 1.4081°W)
Time: 16:58:15
(UTC+00:00)

N. Korean satellite - Pass Details

Date: 26 October 2019
Orbit: 456 x 506 km, 97.2° (Epoch: 16 November)

Event Time Altitude Azimuth Distance (km) Brightness Sun altitude
Rises 05:23:34 0° 23° (NNE) 2,582 10.5 -12.9°
Reaches altitude 10° 05:25:50 10° 35° (NE) 1,703 9.7 -12.4°
Maximum altitude 05:29:04 29° 96° (E) 952 9.0 -11.8°
Drops below altitude 10° 05:32:17 10° 158° (SSE) 1,707 9.7 -11.2°
Sets 05:34:34 0° 170° (S) 2,590 10.5 -10.8°
